User: anonymous   Login
Location: Alpha Ridge Park
(39.3209°N, 76.9128°W)
Time: 23:21:04
(UTC-04:00)
Language:

Explorer 7 - Orbit

View from above orbital plane
View from above orbital plane
View from above satellite
View from above satellite

Ground track
Ground track

The orbit data is extracted from the following two-line orbital elements,

1    22U 59009A   19141.19985441 -.00000070  00000-0  18001-4 0  9996
2    22  50.2832 146.7995 0140265 196.6674 162.9638 14.94863128166491
Epoch (UTC): 21 May 2019 04:47:47
Eccentricity: 0.0140265
inclination: 50.2832°
perigee height: 485 km
apogee height: 680 km
right ascension of ascending node: 146.7995°
argument of perigee: 196.6674°
revolutions per day: 14.94863128
mean anomaly at epoch: 162.9638°
orbit number at epoch: 16649

The dashed part of the orbit path shows where the satellite is in the earth's shadow,  

DLR